Starlink 2354

operational
NORAD ID: 47894 Int'l Des: 2021-021 Owner: SPXS Country: US Constellation: starlink
LEOCIRCULARSTARLINK_TYPE

Über Starlink 2354

Beschreibung wird geladen...

Live-Position

3D-Globus wird geladen...

Nächste Überflüge

Höhenverlauf

Altitude vs Time

uPlot chart will show altitude changes over time

Zweizeiliger Elementsatz

1 47894U 21021AL 25308.50234093 .00002394 00000-0 17954-3 0 9999
2 47894 53.0534 113.6074 0001455 87.2662 272.8493 15.06402954257276
Epoch: 4. Nov. 2025 • Age: 11 hours

Aktueller Status

Höhe 560.8 km
Geschwindigkeit 7.58 km/s
Subsatellitenpunkt -39.26°S, 44.87°E
Startdatum 14. März 2021
Alter 4.6 years
Typ internet

Technische Details

Klassifizierung Payload
Masse 260.00 kg
Trockenmasse 248.00 kg
Gesamtmasse 260.00 kg
Länge 0.20 m
Durchmesser 2.80 m
Spannweite 9.00 m
Form Box + pan
Hersteller SPXS
Bus-Typ Starlink
Phasenstatus In Orbit
Besitzer/Staat SPXS/US

Große Konstellationen

Loading constellations...